AAL963 KDFW-SBGR

Flight info

Callsign AAL963
Flight time N/A
Altitude 33000
Route FORCK3 FORCK DCT DEBII DCT KAMEN DCT KEENY DCT SHYRE DCT HOUND/N0490F350 DCT GULFR DCT OMN Y185 ATTIK DCT BEERD Y185 CVIKK DCT KRTIS L463 BRRGO BR1L BENIE DCT CHASO Y306 HAGIT Y421 HARBG L452 MUNOZ DCT GEECE UL776 KORTO/N0489F370 DCT TIM UA312 TONOM UL452 AKNIB/N0483F390 UL452 ILKUS/N0485F380 UZ38 VUNOX
Aircraft B77W/H-SDE1E2E3FGHIJ2J3J4J5M1RWXY/LB1D1

Departure

Time N/A
Airport Dallas Fort Worth International Airport (KDFW)

Arrival

Time 2026-05-01 14:34
Airport São Paulo/Guarulhos–Governor André Franco Montoro International Airport (SBGR)
Time Latitude Longitude Altitude Speed Heading
2026-05-01 07:23 25.12052 -75.15923 29955 ft 512 kts 132°
2026-05-01 07:24 25.04876 -75.07313 29947 ft 507 kts 140°
2026-05-01 07:24 24.99278 -75.02570 29947 ft 510 kts 144°
2026-05-01 07:25 24.93544 -74.97894 29950 ft 509 kts 144°
2026-05-01 07:25 24.87848 -74.93261 29953 ft 509 kts 144°
2026-05-01 07:26 24.82144 -74.88630 29952 ft 509 kts 144°
2026-05-01 07:26 24.76443 -74.84009 29957 ft 510 kts 144°
2026-05-01 07:27 24.70776 -74.79421 29961 ft 507 kts 144°
2026-05-01 07:27 24.65100 -74.74831 29959 ft 506 kts 144°
2026-05-01 07:28 24.59389 -74.70246 29960 ft 507 kts 145°
2026-05-01 07:28 24.53649 -74.65804 29958 ft 507 kts 145°
2026-05-01 07:29 24.47842 -74.61317 29960 ft 507 kts 145°
2026-05-01 07:29 24.42160 -74.56803 29961 ft 507 kts 139°
2026-05-01 07:30 24.37242 -74.51314 29969 ft 505 kts 132°
2026-05-01 07:30 24.32476 -74.45651 29970 ft 506 kts 132°
2026-05-01 07:31 24.27724 -74.40011 29969 ft 504 kts 132°
2026-05-01 07:32 24.15758 -74.25849 30058 ft 521 kts 132°
2026-05-01 07:32 24.13282 -74.22926 30559 ft 524 kts 133°
2026-05-01 07:33 24.08396 -74.17160 32498 ft 510 kts 132°
2026-05-01 07:33 24.05994 -74.14329 33196 ft 507 kts 132°
2026-05-01 07:33 24.01178 -74.08656 33971 ft 512 kts 132°
2026-05-01 07:34 23.93922 -74.00123 33970 ft 509 kts 132°
2026-05-01 07:35 23.89077 -73.94434 33967 ft 511 kts 132°
2026-05-01 07:35 23.84277 -73.88783 33965 ft 510 kts 131°
2026-05-01 07:36 23.79454 -73.83108 33965 ft 509 kts 131°
2026-05-01 07:36 23.74614 -73.77421 33966 ft 509 kts 131°
2026-05-01 07:37 23.67394 -73.68951 33967 ft 509 kts 131°
2026-05-01 07:37 23.62589 -73.63322 33967 ft 508 kts 131°
2026-05-01 07:38 23.57778 -73.57694 33966 ft 508 kts 131°
2026-05-01 07:39 23.50481 -73.49260 33967 ft 508 kts 132°
2026-05-01 07:39 23.43211 -73.40891 33969 ft 509 kts 132°
2026-05-01 07:40 23.38353 -73.35306 33969 ft 507 kts 132°
2026-05-01 07:40 23.33498 -73.29729 33967 ft 508 kts 132°
2026-05-01 07:41 23.28630 -73.24143 33967 ft 508 kts 132°
2026-05-01 07:42 23.21348 -73.15800 33968 ft 507 kts 132°
2026-05-01 07:42 23.16504 -73.10256 33969 ft 507 kts 132°
2026-05-01 07:43 23.11667 -73.04729 33970 ft 506 kts 132°
2026-05-01 07:43 23.04397 -72.96430 33969 ft 504 kts 132°
2026-05-01 07:44 22.94875 -72.85156 33975 ft 505 kts 126°
2026-05-01 07:45 22.90520 -72.79173 33974 ft 505 kts 126°
2026-05-01 07:45 22.86167 -72.73244 33968 ft 504 kts 126°
2026-05-01 07:46 22.81790 -72.67317 33967 ft 504 kts 127°
2026-05-01 07:47 22.75199 -72.58435 33968 ft 503 kts 127°
2026-05-01 07:47 22.70826 -72.52561 33971 ft 503 kts 126°
2026-05-01 07:48 22.64220 -72.43706 33975 ft 502 kts 127°
2026-05-01 07:48 22.59833 -72.37836 33972 ft 503 kts 127°
2026-05-01 07:49 22.53209 -72.28987 33974 ft 503 kts 127°
2026-05-01 07:50 22.48828 -72.23143 33974 ft 501 kts 127°
2026-05-01 07:50 22.42256 -72.14388 33981 ft 500 kts 127°
2026-05-01 07:51 22.37867 -72.08549 33983 ft 502 kts 127°
2026-05-01 07:52 22.31269 -71.99786 33975 ft 502 kts 127°
2026-05-01 07:52 22.26877 -71.93959 33973 ft 499 kts 127°
2026-05-01 07:53 22.20334 -71.85293 33976 ft 499 kts 127°
2026-05-01 07:53 22.15967 -71.79516 33977 ft 497 kts 127°
2026-05-01 07:55 22.04985 -71.65014 33974 ft 500 kts 127°
2026-05-01 07:56 21.94029 -71.50588 33978 ft 499 kts 127°
2026-05-01 07:57 21.87438 -71.41927 33971 ft 498 kts 127°
2026-05-01 07:58 21.78629 -71.30374 33958 ft 502 kts 128°
2026-05-01 07:59 21.69808 -71.18830 33963 ft 500 kts 128°
2026-05-01 08:00 21.56514 -71.01505 33955 ft 502 kts 129°
2026-05-01 08:01 21.47330 -70.90149 33952 ft 502 kts 130°
2026-05-01 08:02 21.40476 -70.81680 33953 ft 503 kts 130°
2026-05-01 08:03 21.33641 -70.73241 33954 ft 501 kts 130°
2026-05-01 08:03 21.26767 -70.64762 33952 ft 503 kts 130°
2026-05-01 08:04 21.17597 -70.53471 33953 ft 500 kts 131°
2026-05-01 08:05 21.10742 -70.45044 33964 ft 503 kts 131°
2026-05-01 08:06 21.03877 -70.36619 33964 ft 501 kts 131°
2026-05-01 08:07 20.94727 -70.25408 33959 ft 499 kts 132°
2026-05-01 08:08 20.87809 -70.16949 33953 ft 500 kts 132°
2026-05-01 08:09 20.78603 -70.05709 33953 ft 504 kts 132°
2026-05-01 08:09 20.73968 -70.00060 33952 ft 505 kts 132°
2026-05-01 08:10 20.64706 -69.88786 33944 ft 506 kts 132°
2026-05-01 08:11 20.55410 -69.77494 33950 ft 508 kts 133°
2026-05-01 08:12 20.48387 -69.68978 33944 ft 510 kts 133°
2026-05-01 08:13 20.41381 -69.60496 33953 ft 510 kts 133°
2026-05-01 08:13 20.34332 -69.51975 33953 ft 510 kts 134°
2026-05-01 08:14 20.29652 -69.46323 33953 ft 512 kts 134°
2026-05-01 08:14 20.24937 -69.40636 33952 ft 509 kts 134°
2026-05-01 08:15 20.17884 -69.32139 33943 ft 511 kts 135°
2026-05-01 08:16 20.13183 -69.26482 33940 ft 513 kts 135°
2026-05-01 08:16 20.08450 -69.20794 33941 ft 512 kts 135°
2026-05-01 08:17 20.03757 -69.15158 33945 ft 511 kts 135°
2026-05-01 08:17 19.99006 -69.09458 33946 ft 514 kts 135°
2026-05-01 08:18 19.94260 -69.03770 33945 ft 514 kts 135°
2026-05-01 08:19 19.84836 -68.92370 33946 ft 515 kts 131°
2026-05-01 08:19 19.80461 -68.86346 33949 ft 517 kts 131°
2026-05-01 08:20 19.76067 -68.80306 33947 ft 515 kts 131°
2026-05-01 08:20 19.71661 -68.74283 33948 ft 516 kts 131°
2026-05-01 08:21 19.67256 -68.68280 33949 ft 514 kts 131°
2026-05-01 08:21 19.62868 -68.62316 33952 ft 518 kts 131°
2026-05-01 08:22 19.58449 -68.56318 33947 ft 515 kts 131°
2026-05-01 08:22 19.54028 -68.50328 33950 ft 518 kts 131°
2026-05-01 08:23 19.49579 -68.44306 33947 ft 517 kts 131°
2026-05-01 08:23 19.45168 -68.38343 33947 ft 516 kts 131°
2026-05-01 08:24 19.40755 -68.32385 33933 ft 517 kts 132°
2026-05-01 08:24 19.36318 -68.26398 33931 ft 516 kts 132°
2026-05-01 08:25 19.31867 -68.20400 33930 ft 517 kts 132°
2026-05-01 08:25 19.27437 -68.14433 33929 ft 516 kts 132°
2026-05-01 08:26 19.22972 -68.08429 33927 ft 517 kts 132°
2026-05-01 08:26 19.18554 -68.02492 33928 ft 516 kts 132°
2026-05-01 08:27 19.14092 -67.96502 33929 ft 517 kts 132°
2026-05-01 08:27 19.09646 -67.90540 33925 ft 518 kts 132°
2026-05-01 08:28 19.05197 -67.84578 33926 ft 518 kts 132°
2026-05-01 08:28 19.00725 -67.78609 33920 ft 516 kts 134°
2026-05-01 08:29 18.95955 -67.73009 33926 ft 514 kts 136°
2026-05-01 08:29 18.91133 -67.67420 33928 ft 514 kts 136°
2026-05-01 08:30 18.86337 -67.61842 33929 ft 515 kts 136°
2026-05-01 08:30 18.81495 -67.56200 33930 ft 515 kts 136°
2026-05-01 08:31 18.76677 -67.50582 33931 ft 516 kts 136°
2026-05-01 08:31 18.71862 -67.44968 33930 ft 515 kts 136°
2026-05-01 08:32 18.67054 -67.39365 33931 ft 515 kts 136°
2026-05-01 08:32 18.62200 -67.33713 33922 ft 518 kts 137°
2026-05-01 08:33 18.57392 -67.28116 33920 ft 516 kts 137°
2026-05-01 08:33 18.52571 -67.22511 33924 ft 518 kts 137°
2026-05-01 08:34 18.47723 -67.16877 33931 ft 516 kts 137°
2026-05-01 08:34 18.42887 -67.11266 33938 ft 520 kts 137°
2026-05-01 08:35 18.38039 -67.05643 33952 ft 519 kts 137°
2026-05-01 08:35 18.33206 -67.00043 33960 ft 519 kts 137°
2026-05-01 08:36 18.28323 -66.94392 33970 ft 521 kts 137°
2026-05-01 08:36 18.23471 -66.88779 33983 ft 519 kts 137°
2026-05-01 08:37 18.18605 -66.83158 33985 ft 523 kts 137°
2026-05-01 08:37 18.13700 -66.77495 33983 ft 521 kts 137°
2026-05-01 08:38 18.08823 -66.71869 33974 ft 523 kts 137°
2026-05-01 08:38 18.03935 -66.66237 33967 ft 523 kts 137°
2026-05-01 08:39 17.99008 -66.60564 33963 ft 525 kts 138°
2026-05-01 08:39 17.94072 -66.54885 33959 ft 523 kts 137°
2026-05-01 08:40 17.86742 -66.46462 33957 ft 524 kts 137°
2026-05-01 08:40 17.81785 -66.40771 33958 ft 521 kts 138°
2026-05-01 08:41 17.76911 -66.35182 33960 ft 522 kts 137°
2026-05-01 08:41 17.71996 -66.29550 33941 ft 522 kts 138°
2026-05-01 08:42 17.67134 -66.23982 33945 ft 518 kts 138°
2026-05-01 08:42 17.62233 -66.18379 33943 ft 522 kts 137°
2026-05-01 08:43 17.57332 -66.12776 33945 ft 518 kts 137°
2026-05-01 08:43 17.52478 -66.07234 33946 ft 519 kts 137°
2026-05-01 08:44 17.47591 -66.01659 33945 ft 517 kts 138°
2026-05-01 08:44 17.42730 -65.96117 33944 ft 518 kts 137°
2026-05-01 08:45 17.37873 -65.90586 33946 ft 517 kts 137°
2026-05-01 08:45 17.33004 -65.85045 33951 ft 518 kts 137°
2026-05-01 08:46 17.28150 -65.79526 33943 ft 514 kts 137°
2026-05-01 08:46 17.23280 -65.73994 33948 ft 520 kts 137°
2026-05-01 08:47 17.18397 -65.68451 33939 ft 515 kts 137°
2026-05-01 08:47 17.13557 -65.62962 33936 ft 517 kts 137°
2026-05-01 08:48 17.08704 -65.57461 33927 ft 512 kts 137°
2026-05-01 08:48 17.03847 -65.51962 33933 ft 516 kts 137°
2026-05-01 08:49 16.99009 -65.46488 33933 ft 513 kts 137°
2026-05-01 08:49 16.94159 -65.41007 33927 ft 514 kts 137°
2026-05-01 08:50 16.89311 -65.35529 33930 ft 512 kts 136°
2026-05-01 08:50 16.84492 -65.30090 33919 ft 511 kts 137°
2026-05-01 08:51 16.79658 -65.24640 33919 ft 512 kts 137°
2026-05-01 08:51 16.74819 -65.19186 33923 ft 508 kts 137°
2026-05-01 08:52 16.70028 -65.13793 33924 ft 512 kts 137°
2026-05-01 08:52 16.65181 -65.08340 33923 ft 510 kts 136°
2026-05-01 08:53 16.60347 -65.02907 33926 ft 512 kts 136°
2026-05-01 08:53 16.55549 -64.97517 33928 ft 510 kts 136°
2026-05-01 08:54 16.50690 -64.92065 33925 ft 512 kts 136°
2026-05-01 08:54 16.45851 -64.86638 33926 ft 511 kts 136°
2026-05-01 08:55 16.41023 -64.81228 33927 ft 511 kts 136°
2026-05-01 08:55 16.36192 -64.75819 33926 ft 511 kts 136°
2026-05-01 08:56 16.31335 -64.70384 33927 ft 511 kts 136°
2026-05-01 08:56 16.26517 -64.64999 33930 ft 514 kts 136°
2026-05-01 08:57 16.21639 -64.59550 33927 ft 512 kts 136°
2026-05-01 08:57 16.16772 -64.54118 33926 ft 514 kts 136°
2026-05-01 08:58 16.11913 -64.48698 33939 ft 514 kts 136°
2026-05-01 08:58 16.07024 -64.43250 33946 ft 512 kts 136°
2026-05-01 08:59 16.02163 -64.37837 33952 ft 515 kts 136°
2026-05-01 08:59 15.97276 -64.32399 33939 ft 512 kts 136°
2026-05-01 09:00 15.92421 -64.27000 33941 ft 514 kts 136°
2026-05-01 09:00 15.87543 -64.21581 33935 ft 513 kts 136°
2026-05-01 09:01 15.82656 -64.16155 33938 ft 514 kts 136°
2026-05-01 09:01 15.77763 -64.10727 33943 ft 514 kts 136°
2026-05-01 09:02 15.72872 -64.05306 33943 ft 515 kts 136°
2026-05-01 09:02 15.67994 -63.99902 33945 ft 515 kts 136°
2026-05-01 09:03 15.63119 -63.94505 33946 ft 513 kts 136°
2026-05-01 09:03 15.58236 -63.89106 33947 ft 514 kts 136°
2026-05-01 09:04 15.53340 -63.83695 33947 ft 514 kts 136°
2026-05-01 09:04 15.48450 -63.78294 33948 ft 513 kts 136°
2026-05-01 09:05 15.43568 -63.72907 33948 ft 514 kts 136°
2026-05-01 09:05 15.38674 -63.67509 33950 ft 513 kts 136°
2026-05-01 09:06 15.33805 -63.62144 33950 ft 512 kts 136°
2026-05-01 09:06 15.28910 -63.56754 33951 ft 513 kts 136°
2026-05-01 09:07 15.24035 -63.51390 33947 ft 512 kts 136°
2026-05-01 09:07 15.19145 -63.46014 33945 ft 513 kts 136°
2026-05-01 09:08 15.14254 -63.40639 33940 ft 512 kts 136°
2026-05-01 09:08 15.09360 -63.35266 33944 ft 512 kts 136°
2026-05-01 09:09 15.04469 -63.29900 33938 ft 514 kts 136°
2026-05-01 09:09 14.99306 -63.24794 33937 ft 508 kts 147°
2026-05-01 09:10 14.93425 -63.20830 33937 ft 506 kts 151°
2026-05-01 09:10 14.87420 -63.16940 33940 ft 506 kts 151°
2026-05-01 09:11 14.81443 -63.13083 33939 ft 507 kts 151°
2026-05-01 09:11 14.75475 -63.09241 33941 ft 507 kts 152°
2026-05-01 09:12 14.69446 -63.05367 33944 ft 508 kts 151°
2026-05-01 09:12 14.63428 -63.01504 33946 ft 507 kts 151°
2026-05-01 09:13 14.57445 -62.97667 33943 ft 507 kts 151°
2026-05-01 09:13 14.51456 -62.93830 33946 ft 507 kts 152°
2026-05-01 09:14 14.45457 -62.89988 33945 ft 507 kts 151°
2026-05-01 09:14 14.39482 -62.86166 33946 ft 507 kts 152°
2026-05-01 09:15 14.33441 -62.82303 33947 ft 509 kts 152°
2026-05-01 09:15 14.27464 -62.78484 33949 ft 508 kts 151°
2026-05-01 09:16 14.21435 -62.74633 33950 ft 508 kts 152°
2026-05-01 09:17 14.12436 -62.68892 33946 ft 508 kts 152°
2026-05-01 09:17 14.03431 -62.63151 33950 ft 508 kts 151°
2026-05-01 09:18 13.94392 -62.57394 33951 ft 507 kts 151°
2026-05-01 09:19 13.85406 -62.51676 33952 ft 507 kts 151°
2026-05-01 09:20 13.76352 -62.45921 33951 ft 508 kts 151°
2026-05-01 09:21 13.64291 -62.38261 33951 ft 506 kts 151°
2026-05-01 09:21 13.55312 -62.32566 33944 ft 504 kts 152°
2026-05-01 09:22 13.43348 -62.24985 33942 ft 505 kts 151°
2026-05-01 09:23 13.34328 -62.19275 33941 ft 505 kts 151°
2026-05-01 09:24 13.25382 -62.13617 33945 ft 504 kts 151°
2026-05-01 09:25 13.13420 -62.06060 33947 ft 504 kts 151°
2026-05-01 09:26 13.04497 -62.00428 33946 ft 503 kts 151°
2026-05-01 09:26 12.95542 -61.94781 33949 ft 503 kts 151°
2026-05-01 09:27 12.86573 -61.89130 33950 ft 502 kts 151°
2026-05-01 09:28 12.80637 -61.85393 33953 ft 501 kts 151°
2026-05-01 09:28 12.74664 -61.81634 33954 ft 502 kts 151°
2026-05-01 09:29 12.65713 -61.76006 33960 ft 502 kts 151°
2026-05-01 09:30 12.56757 -61.70380 33967 ft 501 kts 151°
2026-05-01 09:30 12.47844 -61.64784 33964 ft 501 kts 151°
2026-05-01 09:31 12.41920 -61.61068 33960 ft 500 kts 151°
2026-05-01 09:32 12.33014 -61.55484 33958 ft 499 kts 150°
2026-05-01 09:32 12.24152 -61.49933 33951 ft 498 kts 150°
2026-05-01 09:33 12.18199 -61.46206 33951 ft 499 kts 150°
2026-05-01 09:34 12.09349 -61.40670 33951 ft 499 kts 150°
2026-05-01 09:34 12.00449 -61.35107 33952 ft 500 kts 150°
2026-05-01 09:35 11.91552 -61.29550 33943 ft 499 kts 151°
2026-05-01 09:36 11.85567 -61.25814 33940 ft 500 kts 150°
2026-05-01 09:36 11.79658 -61.22127 33939 ft 499 kts 150°
2026-05-01 09:37 11.73690 -61.18406 33945 ft 500 kts 150°
2026-05-01 09:37 11.64783 -61.12855 33945 ft 499 kts 150°
2026-05-01 09:38 11.55902 -61.07326 33944 ft 499 kts 150°
2026-05-01 09:39 11.46981 -61.01775 33944 ft 498 kts 150°
2026-05-01 09:39 11.41045 -60.98084 33941 ft 499 kts 150°
2026-05-01 09:40 11.32163 -60.92564 33942 ft 500 kts 150°
2026-05-01 09:41 11.26197 -60.88859 33947 ft 499 kts 150°
2026-05-01 09:41 11.17293 -60.83333 33947 ft 500 kts 150°
2026-05-01 09:42 11.11364 -60.79655 33943 ft 499 kts 150°
2026-05-01 09:43 10.99500 -60.72301 33947 ft 499 kts 150°
2026-05-01 09:43 10.93524 -60.68599 33946 ft 500 kts 150°
2026-05-01 09:44 10.84629 -60.63094 33948 ft 499 kts 150°
2026-05-01 09:45 10.78644 -60.59390 33948 ft 498 kts 151°
2026-05-01 09:45 10.69760 -60.53897 33949 ft 499 kts 150°
2026-05-01 09:46 10.63837 -60.50237 33950 ft 497 kts 150°
2026-05-01 09:46 10.57906 -60.46574 33948 ft 498 kts 150°
2026-05-01 09:47 10.51968 -60.42908 33949 ft 497 kts 150°
2026-05-01 09:47 10.46042 -60.39251 33950 ft 497 kts 150°
2026-05-01 09:48 10.40158 -60.35621 33948 ft 497 kts 150°
2026-05-01 09:48 10.34225 -60.31963 33942 ft 496 kts 151°
2026-05-01 09:49 10.28297 -60.28310 33943 ft 496 kts 151°
2026-05-01 09:49 10.22387 -60.24670 33943 ft 497 kts 151°
2026-05-01 09:50 10.16467 -60.21024 33940 ft 496 kts 151°
2026-05-01 09:50 10.10586 -60.17405 33945 ft 497 kts 151°
2026-05-01 09:51 10.04660 -60.13760 33942 ft 496 kts 151°
2026-05-01 09:51 9.98725 -60.10110 33942 ft 496 kts 151°
2026-05-01 09:52 9.92818 -60.06479 33943 ft 496 kts 151°
2026-05-01 09:52 9.86899 -60.02842 33946 ft 497 kts 151°
2026-05-01 09:53 9.80988 -59.99212 33945 ft 496 kts 151°
2026-05-01 09:53 9.75096 -59.95595 33945 ft 496 kts 151°
2026-05-01 09:54 9.69151 -59.91947 33945 ft 495 kts 150°
2026-05-01 09:54 9.63256 -59.88332 33948 ft 494 kts 150°
2026-05-01 09:55 9.57392 -59.84736 33947 ft 493 kts 150°
2026-05-01 09:55 9.51529 -59.81143 33947 ft 492 kts 151°
2026-05-01 09:56 9.45658 -59.77546 33947 ft 492 kts 150°
2026-05-01 09:56 9.39800 -59.73959 33948 ft 493 kts 150°
2026-05-01 09:57 9.33917 -59.70358 33949 ft 493 kts 150°
2026-05-01 09:57 9.28052 -59.66769 33948 ft 492 kts 150°
2026-05-01 09:58 9.22202 -59.63191 33947 ft 492 kts 150°
2026-05-01 09:58 9.16348 -59.59612 33947 ft 490 kts 150°
2026-05-01 09:59 9.10494 -59.56034 33947 ft 491 kts 150°
2026-05-01 09:59 9.04657 -59.52468 33947 ft 490 kts 150°
2026-05-01 10:00 8.98811 -59.48898 33944 ft 490 kts 150°
2026-05-01 10:00 8.92961 -59.45328 33941 ft 489 kts 150°
2026-05-01 10:01 8.86907 -59.42197 33941 ft 488 kts 155°
2026-05-01 10:01 8.80791 -59.39187 33939 ft 488 kts 155°
2026-05-01 10:02 8.74669 -59.36174 33942 ft 487 kts 155°
2026-05-01 10:02 8.68555 -59.33164 33936 ft 485 kts 155°
2026-05-01 10:03 8.62456 -59.30162 33935 ft 486 kts 155°
2026-05-01 10:03 8.56328 -59.27145 33937 ft 485 kts 155°
2026-05-01 10:04 8.50235 -59.24148 33940 ft 485 kts 155°
2026-05-01 10:04 8.44168 -59.21164 33942 ft 484 kts 155°
2026-05-01 10:05 8.38137 -59.18198 33947 ft 484 kts 155°
2026-05-01 10:05 8.32039 -59.15201 33947 ft 485 kts 155°
2026-05-01 10:06 8.25990 -59.12228 33944 ft 484 kts 155°
2026-05-01 10:06 8.19933 -59.09253 33945 ft 484 kts 155°
2026-05-01 10:07 8.13883 -59.06282 33946 ft 483 kts 155°
2026-05-01 10:07 8.07805 -59.03299 33947 ft 481 kts 155°
2026-05-01 10:08 7.98774 -58.98867 33943 ft 481 kts 155°
2026-05-01 10:09 7.92761 -58.95919 33941 ft 482 kts 155°
2026-05-01 10:09 7.86695 -58.92944 33947 ft 482 kts 155°
2026-05-01 10:10 7.80677 -58.89994 33945 ft 482 kts 155°
2026-05-01 10:10 7.71579 -58.85537 33944 ft 482 kts 155°
2026-05-01 10:11 7.65560 -58.82589 33946 ft 480 kts 155°
2026-05-01 10:11 7.59560 -58.79652 33944 ft 479 kts 155°
2026-05-01 10:12 7.53539 -58.76705 33948 ft 480 kts 155°
2026-05-01 10:13 7.44543 -58.72303 33949 ft 480 kts 155°
2026-05-01 10:13 7.38512 -58.69354 33946 ft 480 kts 155°
2026-05-01 10:14 7.29479 -58.64938 33945 ft 479 kts 155°
2026-05-01 10:14 7.23495 -58.62013 33948 ft 478 kts 155°
2026-05-01 10:15 7.17486 -58.59078 33946 ft 478 kts 155°
2026-05-01 10:15 7.11486 -58.56147 33945 ft 478 kts 155°
2026-05-01 10:16 7.05501 -58.53225 33945 ft 479 kts 155°
2026-05-01 10:17 6.96529 -58.48846 33945 ft 478 kts 155°
2026-05-01 10:17 6.87519 -58.44450 33947 ft 479 kts 154°
2026-05-01 10:18 6.78457 -58.40031 33946 ft 477 kts 154°
2026-05-01 10:19 6.72397 -58.37076 33945 ft 478 kts 154°
2026-05-01 10:19 6.66389 -58.34148 33942 ft 477 kts 155°
2026-05-01 10:20 6.57349 -58.29744 33943 ft 477 kts 155°
2026-05-01 10:20 6.51322 -58.26808 33944 ft 477 kts 154°
2026-05-01 10:21 6.42079 -58.22853 33945 ft 478 kts 159°
2026-05-01 10:22 6.32795 -58.19163 33942 ft 476 kts 159°
2026-05-01 10:23 6.23559 -58.15461 33945 ft 475 kts 158°
2026-05-01 10:23 6.14362 -58.11764 33947 ft 475 kts 158°
2026-05-01 10:24 6.02083 -58.06823 33948 ft 474 kts 158°
2026-05-01 10:25 5.89752 -58.01860 33947 ft 476 kts 158°
2026-05-01 10:26 5.83602 -57.99386 33951 ft 474 kts 158°
2026-05-01 10:27 5.71258 -57.94421 33942 ft 473 kts 158°
2026-05-01 10:28 5.62052 -57.90719 33933 ft 473 kts 158°
2026-05-01 10:28 5.52909 -57.87044 33935 ft 473 kts 158°
2026-05-01 10:29 5.43738 -57.83360 33938 ft 471 kts 158°
2026-05-01 10:30 5.31527 -57.78455 33939 ft 471 kts 158°
2026-05-01 10:31 5.19319 -57.73554 33942 ft 471 kts 158°
2026-05-01 10:32 5.10172 -57.69883 33941 ft 470 kts 158°
2026-05-01 10:33 4.98013 -57.65006 33939 ft 470 kts 158°
2026-05-01 10:34 4.88849 -57.61461 33941 ft 469 kts 159°
2026-05-01 10:34 4.82711 -57.59100 33943 ft 469 kts 158°
2026-05-01 10:35 4.73503 -57.55556 33943 ft 470 kts 158°
2026-05-01 10:35 4.67389 -57.53202 33941 ft 469 kts 158°
2026-05-01 10:36 4.58260 -57.49686 33946 ft 469 kts 158°
2026-05-01 10:37 4.52164 -57.47339 33948 ft 468 kts 158°
2026-05-01 10:37 4.43041 -57.43827 33948 ft 468 kts 158°
2026-05-01 10:38 4.36930 -57.41475 33951 ft 468 kts 158°
2026-05-01 10:38 4.30855 -57.39137 33955 ft 469 kts 158°
2026-05-01 10:39 4.24768 -57.36795 33957 ft 467 kts 158°
2026-05-01 10:39 4.18631 -57.34434 33960 ft 467 kts 158°
2026-05-01 10:40 4.12549 -57.32095 33963 ft 467 kts 158°
2026-05-01 10:40 4.06449 -57.29748 33963 ft 468 kts 158°
2026-05-01 10:41 4.00319 -57.27391 33964 ft 466 kts 158°
2026-05-01 10:42 3.91223 -57.23895 33964 ft 466 kts 158°
2026-05-01 10:42 3.85107 -57.21543 33968 ft 467 kts 158°
2026-05-01 10:43 3.79008 -57.19200 33972 ft 466 kts 158°
2026-05-01 10:43 3.72939 -57.16868 33969 ft 467 kts 158°
2026-05-01 10:44 3.66887 -57.14543 33972 ft 466 kts 158°
2026-05-01 10:44 3.60811 -57.12209 33968 ft 467 kts 158°
2026-05-01 10:45 3.54738 -57.09876 33969 ft 465 kts 158°
2026-05-01 10:45 3.48692 -57.07554 33969 ft 463 kts 158°
2026-05-01 10:46 3.42652 -57.05235 33967 ft 465 kts 158°
2026-05-01 10:46 3.36634 -57.02925 33965 ft 461 kts 158°
2026-05-01 10:47 3.30617 -57.00615 33964 ft 463 kts 158°
2026-05-01 10:47 3.24565 -56.98292 33961 ft 464 kts 158°
2026-05-01 10:48 3.18525 -56.95974 33964 ft 462 kts 158°
2026-05-01 10:48 3.12514 -56.93668 33964 ft 463 kts 158°
2026-05-01 10:49 3.06471 -56.91349 33964 ft 465 kts 158°
2026-05-01 10:49 3.00416 -56.89027 33966 ft 464 kts 158°
2026-05-01 10:50 2.94375 -56.86709 33966 ft 464 kts 158°
2026-05-01 10:50 2.88297 -56.84378 33968 ft 467 kts 158°
2026-05-01 10:51 2.82216 -56.82046 33969 ft 467 kts 158°
2026-05-01 10:51 2.76154 -56.79722 33963 ft 465 kts 158°
2026-05-01 10:52 2.70091 -56.77397 33954 ft 467 kts 157°
2026-05-01 10:52 2.64003 -56.75063 33947 ft 468 kts 157°
2026-05-01 10:53 2.57893 -56.72721 33948 ft 469 kts 157°
2026-05-01 10:53 2.51796 -56.70384 33949 ft 472 kts 157°
2026-05-01 10:54 2.45628 -56.68020 33948 ft 472 kts 157°
2026-05-01 10:54 2.39493 -56.65669 33947 ft 473 kts 157°
2026-05-01 10:55 2.33338 -56.63311 33948 ft 474 kts 156°
2026-05-01 10:55 2.27138 -56.60935 33954 ft 475 kts 156°
2026-05-01 10:56 2.20967 -56.58571 33954 ft 474 kts 157°
2026-05-01 10:56 2.14770 -56.56197 33955 ft 476 kts 156°
2026-05-01 10:57 2.08596 -56.53833 33962 ft 477 kts 156°
2026-05-01 10:57 2.02395 -56.51457 33964 ft 478 kts 156°
2026-05-01 10:58 1.96171 -56.49074 33965 ft 475 kts 156°
2026-05-01 10:58 1.90101 -56.46425 33970 ft 476 kts 152°
2026-05-01 10:59 1.84055 -56.43617 33973 ft 475 kts 153°
2026-05-01 10:59 1.78005 -56.40827 33972 ft 476 kts 153°
2026-05-01 11:00 1.71976 -56.38057 33969 ft 474 kts 153°
2026-05-01 11:00 1.65910 -56.35277 33970 ft 476 kts 153°
2026-05-01 11:01 1.59893 -56.32523 33976 ft 477 kts 153°
2026-05-01 11:01 1.53853 -56.29759 33977 ft 477 kts 153°
2026-05-01 11:02 1.47752 -56.26969 33976 ft 476 kts 153°
2026-05-01 11:02 1.41750 -56.24225 33978 ft 476 kts 153°
2026-05-01 11:03 1.35697 -56.21458 33977 ft 478 kts 153°
2026-05-01 11:03 1.29620 -56.18679 33977 ft 478 kts 153°
2026-05-01 11:04 1.23584 -56.15921 33978 ft 478 kts 152°
2026-05-01 11:04 1.17488 -56.13134 33975 ft 480 kts 153°
2026-05-01 11:05 1.11419 -56.10360 33976 ft 480 kts 153°
2026-05-01 11:05 1.05308 -56.07568 33977 ft 479 kts 152°
2026-05-01 11:06 0.99257 -56.04803 33978 ft 480 kts 152°
2026-05-01 11:06 0.93163 -56.02018 33974 ft 481 kts 152°
2026-05-01 11:07 0.83969 -55.97818 33970 ft 481 kts 152°
2026-05-01 11:07 0.77876 -55.95034 33971 ft 482 kts 152°
2026-05-01 11:08 0.71747 -55.92234 33974 ft 480 kts 153°
2026-05-01 11:09 0.62617 -55.88064 33975 ft 481 kts 153°
2026-05-01 11:09 0.56519 -55.85278 33975 ft 481 kts 152°
2026-05-01 11:10 0.47337 -55.81084 33975 ft 481 kts 153°
2026-05-01 11:10 0.41216 -55.78288 33978 ft 481 kts 153°
2026-05-01 11:11 0.35088 -55.75489 33976 ft 482 kts 152°
2026-05-01 11:11 0.28979 -55.72699 33973 ft 481 kts 153°
2026-05-01 11:12 0.22870 -55.69908 33976 ft 482 kts 153°
2026-05-01 11:12 0.16780 -55.67126 33974 ft 481 kts 153°
2026-05-01 11:13 0.10802 -55.64396 33982 ft 482 kts 153°
2026-05-01 11:13 0.04775 -55.61643 33988 ft 481 kts 153°
2026-05-01 11:14 -0.01327 -55.58856 33991 ft 483 kts 153°
2026-05-01 11:14 -0.07463 -55.56054 33989 ft 482 kts 153°
2026-05-01 11:15 -0.13615 -55.53244 33995 ft 482 kts 153°
2026-05-01 11:15 -0.19726 -55.50452 33993 ft 482 kts 153°
2026-05-01 11:16 -0.25825 -55.47666 33990 ft 483 kts 153°
2026-05-01 11:16 -0.31946 -55.44871 33989 ft 483 kts 153°
2026-05-01 11:17 -0.38087 -55.42066 33986 ft 483 kts 153°
2026-05-01 11:17 -0.44250 -55.39251 33983 ft 483 kts 153°
2026-05-01 11:18 -0.50361 -55.36459 33985 ft 483 kts 153°
2026-05-01 11:18 -0.56526 -55.33643 33992 ft 485 kts 153°
2026-05-01 11:19 -0.62696 -55.30824 33992 ft 484 kts 153°
2026-05-01 11:19 -0.68814 -55.28030 33991 ft 485 kts 152°
2026-05-01 11:20 -0.74961 -55.25222 33992 ft 485 kts 153°
2026-05-01 11:20 -0.81115 -55.22410 33986 ft 485 kts 153°
2026-05-01 11:21 -0.87262 -55.19602 33983 ft 485 kts 153°
2026-05-01 11:21 -0.93401 -55.16797 33983 ft 485 kts 153°
2026-05-01 11:22 -0.99588 -55.13970 33973 ft 486 kts 153°
2026-05-01 11:22 -1.05783 -55.11140 33958 ft 486 kts 153°
2026-05-01 11:23 -1.11917 -55.08337 33956 ft 485 kts 153°
2026-05-01 11:23 -1.18090 -55.05516 33961 ft 484 kts 153°
2026-05-01 11:24 -1.24231 -55.02710 33959 ft 485 kts 153°
2026-05-01 11:25 -1.33444 -54.98500 33964 ft 486 kts 152°
2026-05-01 11:25 -1.42685 -54.94276 33966 ft 486 kts 153°
2026-05-01 11:26 -1.51915 -54.90057 33967 ft 485 kts 152°
2026-05-01 11:27 -1.58072 -54.87242 33963 ft 484 kts 152°
2026-05-01 11:27 -1.64210 -54.84436 33962 ft 484 kts 152°
2026-05-01 11:28 -1.70363 -54.81624 33964 ft 485 kts 152°
2026-05-01 11:28 -1.76490 -54.78822 33955 ft 485 kts 152°
2026-05-01 11:29 -1.85739 -54.74593 33952 ft 485 kts 152°
2026-05-01 11:30 -1.94958 -54.70377 33952 ft 484 kts 152°
2026-05-01 11:30 -2.01079 -54.67578 33952 ft 482 kts 152°
2026-05-01 11:31 -2.07169 -54.64792 33950 ft 483 kts 152°
2026-05-01 11:31 -2.13299 -54.61988 33947 ft 484 kts 152°
2026-05-01 11:32 -2.19441 -54.59179 33943 ft 483 kts 152°
2026-05-01 11:32 -2.25582 -54.56369 33946 ft 483 kts 153°
2026-05-01 11:33 -2.31730 -54.53556 33944 ft 482 kts 153°
2026-05-01 11:33 -2.37822 -54.50768 33942 ft 481 kts 152°
2026-05-01 11:34 -2.43960 -54.47960 33943 ft 482 kts 152°
2026-05-01 11:34 -2.50052 -54.45172 33946 ft 482 kts 152°
2026-05-01 11:35 -2.56183 -54.42366 33945 ft 483 kts 152°
2026-05-01 11:35 -2.62305 -54.39564 33948 ft 481 kts 153°
2026-05-01 11:36 -2.68398 -54.36775 33955 ft 481 kts 153°
2026-05-01 11:36 -2.74495 -54.33984 33968 ft 481 kts 152°
2026-05-01 11:37 -2.80642 -54.31170 33975 ft 480 kts 152°
2026-05-01 11:37 -2.86745 -54.28375 33976 ft 481 kts 152°
2026-05-01 11:38 -2.92912 -54.25550 33977 ft 481 kts 152°
2026-05-01 11:38 -2.98999 -54.22763 33979 ft 480 kts 152°
2026-05-01 11:39 -3.05075 -54.19979 33982 ft 481 kts 152°
2026-05-01 11:39 -3.11201 -54.17172 33980 ft 482 kts 152°
2026-05-01 11:40 -3.17310 -54.14373 33977 ft 482 kts 152°
2026-05-01 11:40 -3.23460 -54.11555 33978 ft 481 kts 152°
2026-05-01 11:41 -3.29653 -54.08717 33979 ft 483 kts 153°
2026-05-01 11:41 -3.35744 -54.05925 33975 ft 483 kts 152°
2026-05-01 11:42 -3.41887 -54.03108 33973 ft 482 kts 152°
2026-05-01 11:42 -3.47990 -54.00309 33976 ft 482 kts 153°
2026-05-01 11:43 -3.54087 -53.97512 33976 ft 484 kts 153°
2026-05-01 11:43 -3.60235 -53.94692 33970 ft 483 kts 152°
2026-05-01 11:44 -3.69436 -53.90470 33974 ft 485 kts 152°
2026-05-01 11:44 -3.75634 -53.87626 33971 ft 486 kts 152°
2026-05-01 11:45 -3.81811 -53.84792 33976 ft 486 kts 153°
2026-05-01 11:45 -3.88000 -53.81950 33973 ft 485 kts 153°
2026-05-01 11:46 -3.94167 -53.79119 33978 ft 485 kts 153°
2026-05-01 11:46 -4.00333 -53.76288 33975 ft 485 kts 153°
2026-05-01 11:47 -4.06515 -53.73449 33977 ft 487 kts 153°
2026-05-01 11:47 -4.12665 -53.70624 33973 ft 487 kts 153°
2026-05-01 11:48 -4.18869 -53.67774 33971 ft 487 kts 153°
2026-05-01 11:48 -4.25086 -53.64917 33970 ft 488 kts 153°
2026-05-01 11:49 -4.31255 -53.62082 33971 ft 487 kts 153°
2026-05-01 11:49 -4.37480 -53.59220 33968 ft 487 kts 153°
2026-05-01 11:50 -4.43668 -53.56375 33968 ft 488 kts 153°
2026-05-01 11:50 -4.49850 -53.53532 33966 ft 487 kts 153°
2026-05-01 11:51 -4.56033 -53.50687 33966 ft 487 kts 153°
2026-05-01 11:51 -4.62243 -53.47830 33967 ft 487 kts 153°
2026-05-01 11:52 -4.68444 -53.44976 33971 ft 488 kts 153°
2026-05-01 11:52 -4.74643 -53.42123 33970 ft 488 kts 153°
2026-05-01 11:53 -4.80853 -53.39264 33967 ft 488 kts 153°
2026-05-01 11:53 -4.87022 -53.36424 33966 ft 487 kts 153°
2026-05-01 11:54 -4.93203 -53.33577 33971 ft 486 kts 153°
2026-05-01 11:54 -4.99418 -53.30714 33974 ft 487 kts 153°
2026-05-01 11:55 -5.05583 -53.27873 33987 ft 488 kts 153°
2026-05-01 11:55 -5.11754 -53.25029 33994 ft 488 kts 153°
2026-05-01 11:56 -5.17966 -53.22166 33995 ft 487 kts 153°
2026-05-01 11:56 -5.24160 -53.19310 33997 ft 486 kts 153°
2026-05-01 11:57 -5.30383 -53.16440 33996 ft 486 kts 153°
2026-05-01 11:57 -5.36591 -53.13577 33994 ft 487 kts 153°
2026-05-01 11:58 -5.42832 -53.10698 33991 ft 487 kts 153°
2026-05-01 11:59 -5.52148 -53.06398 33988 ft 487 kts 153°
2026-05-01 11:59 -5.58366 -53.03528 33992 ft 486 kts 153°
2026-05-01 12:00 -5.67669 -52.99232 33998 ft 486 kts 153°
2026-05-01 12:01 -5.76895 -52.94970 34004 ft 486 kts 153°
2026-05-01 12:01 -5.83090 -52.92108 33999 ft 487 kts 153°
2026-05-01 12:02 -5.89234 -52.89269 33998 ft 486 kts 154°
2026-05-01 12:02 -5.95355 -52.86439 33996 ft 485 kts 154°
2026-05-01 12:03 -6.01540 -52.83579 34005 ft 485 kts 154°
2026-05-01 12:03 -6.07673 -52.80742 34020 ft 485 kts 154°
2026-05-01 12:04 -6.13840 -52.77889 34031 ft 485 kts 154°
2026-05-01 12:04 -6.19980 -52.75048 34032 ft 484 kts 154°
2026-05-01 12:05 -6.26137 -52.72198 34031 ft 484 kts 154°
2026-05-01 12:05 -6.35337 -52.67938 34024 ft 483 kts 154°
2026-05-01 12:06 -6.41503 -52.65083 34019 ft 483 kts 154°
2026-05-01 12:06 -6.47613 -52.62252 34017 ft 483 kts 154°
2026-05-01 12:07 -6.53720 -52.59422 34007 ft 482 kts 154°
2026-05-01 12:07 -6.59881 -52.56567 34004 ft 482 kts 154°
2026-05-01 12:08 -6.66010 -52.53725 34008 ft 482 kts 154°
2026-05-01 12:08 -6.72107 -52.50898 34016 ft 481 kts 154°
2026-05-01 12:09 -6.78196 -52.48073 34014 ft 480 kts 154°
2026-05-01 12:09 -6.84270 -52.45255 34015 ft 480 kts 154°
2026-05-01 12:10 -6.93423 -52.41007 34013 ft 479 kts 154°
2026-05-01 12:11 -7.02524 -52.36780 34008 ft 479 kts 154°
2026-05-01 12:11 -7.08609 -52.33953 34015 ft 479 kts 154°
2026-05-01 12:12 -7.14729 -52.31110 34020 ft 478 kts 154°
2026-05-01 12:12 -7.20821 -52.28278 34027 ft 478 kts 154°
2026-05-01 12:13 -7.26923 -52.25441 34033 ft 479 kts 154°
2026-05-01 12:13 -7.32993 -52.22618 34031 ft 480 kts 154°
2026-05-01 12:14 -7.39101 -52.19776 34030 ft 480 kts 154°
2026-05-01 12:14 -7.45190 -52.16943 34026 ft 480 kts 154°
2026-05-01 12:15 -7.51238 -52.14127 34023 ft 479 kts 154°
2026-05-01 12:15 -7.57313 -52.11299 34023 ft 480 kts 154°
2026-05-01 12:16 -7.63408 -52.08460 34020 ft 481 kts 154°
2026-05-01 12:16 -7.69498 -52.05622 34016 ft 480 kts 154°
2026-05-01 12:17 -7.75569 -52.02792 34017 ft 480 kts 154°
2026-05-01 12:17 -7.81652 -51.99956 34010 ft 480 kts 154°
2026-05-01 12:18 -7.87713 -51.97129 34013 ft 480 kts 154°
2026-05-01 12:18 -7.93792 -51.94295 34019 ft 480 kts 154°
2026-05-01 12:19 -7.99856 -51.91466 34016 ft 481 kts 154°
2026-05-01 12:19 -8.05936 -51.88630 34018 ft 481 kts 154°
2026-05-01 12:20 -8.12024 -51.85789 34016 ft 481 kts 154°
2026-05-01 12:20 -8.18072 -51.82772 34016 ft 480 kts 152°
2026-05-01 12:21 -8.24042 -51.79704 34013 ft 478 kts 152°
2026-05-01 12:21 -8.30005 -51.76648 34010 ft 476 kts 153°
2026-05-01 12:22 -8.35974 -51.73593 34010 ft 477 kts 153°
2026-05-01 12:22 -8.41898 -51.70564 34011 ft 476 kts 153°
2026-05-01 12:23 -8.47846 -51.67524 34010 ft 476 kts 153°
2026-05-01 12:23 -8.53764 -51.64497 34012 ft 476 kts 153°
2026-05-01 12:24 -8.59672 -51.61476 34018 ft 476 kts 153°
2026-05-01 12:24 -8.65625 -51.58431 34020 ft 476 kts 153°
2026-05-01 12:25 -8.74545 -51.53867 34024 ft 477 kts 153°
2026-05-01 12:26 -8.80493 -51.50821 34023 ft 477 kts 153°
2026-05-01 12:26 -8.89379 -51.46270 34024 ft 477 kts 153°
2026-05-01 12:27 -8.98322 -51.41687 34021 ft 477 kts 153°
2026-05-01 12:28 -9.07224 -51.37122 34022 ft 476 kts 153°
2026-05-01 12:29 -9.16161 -51.32537 34022 ft 476 kts 153°
2026-05-01 12:29 -9.25141 -51.27927 34032 ft 477 kts 153°
2026-05-01 12:30 -9.34027 -51.23363 34036 ft 477 kts 153°
2026-05-01 12:31 -9.39961 -51.20314 34036 ft 478 kts 153°
2026-05-01 12:31 -9.45937 -51.17242 34035 ft 478 kts 153°
2026-05-01 12:32 -9.51885 -51.14183 34040 ft 477 kts 153°
2026-05-01 12:32 -9.60800 -51.09596 34037 ft 477 kts 153°
2026-05-01 12:33 -9.66763 -51.06526 34032 ft 477 kts 153°
2026-05-01 12:33 -9.72728 -51.03454 34021 ft 478 kts 153°
2026-05-01 12:34 -9.78758 -51.00348 34018 ft 479 kts 153°
2026-05-01 12:34 -9.84733 -50.97268 34021 ft 480 kts 153°
2026-05-01 12:35 -9.90692 -50.94196 34021 ft 479 kts 153°
2026-05-01 12:35 -9.96670 -50.91112 34026 ft 478 kts 153°
2026-05-01 12:36 -10.02624 -50.88039 34026 ft 477 kts 153°
2026-05-01 12:36 -10.08561 -50.84975 34021 ft 477 kts 153°
2026-05-01 12:37 -10.14523 -50.81895 34020 ft 478 kts 153°
2026-05-01 12:37 -10.20503 -50.78805 34018 ft 478 kts 153°
2026-05-01 12:38 -10.26436 -50.75739 34016 ft 479 kts 152°
2026-05-01 12:38 -10.32402 -50.72654 34017 ft 479 kts 152°
2026-05-01 12:39 -10.38363 -50.69570 34014 ft 478 kts 152°
2026-05-01 12:39 -10.44273 -50.66511 34015 ft 478 kts 152°
2026-05-01 12:40 -10.50204 -50.63364 34014 ft 478 kts 151°
2026-05-01 12:40 -10.56068 -50.60194 34013 ft 478 kts 151°
2026-05-01 12:41 -10.61950 -50.57016 34013 ft 478 kts 151°
2026-05-01 12:41 -10.67836 -50.53838 34010 ft 478 kts 151°
2026-05-01 12:42 -10.73729 -50.50656 34010 ft 477 kts 151°
2026-05-01 12:42 -10.79610 -50.47480 34009 ft 477 kts 151°
2026-05-01 12:43 -10.85498 -50.44299 34005 ft 478 kts 151°
2026-05-01 12:43 -10.91374 -50.41123 34001 ft 478 kts 151°
2026-05-01 12:44 -10.97224 -50.37960 34002 ft 478 kts 151°
2026-05-01 12:45 -11.09037 -50.31567 34002 ft 478 kts 150°
2026-05-01 12:45 -11.14925 -50.28369 34000 ft 478 kts 150°
2026-05-01 12:46 -11.20819 -50.25166 34000 ft 478 kts 150°
2026-05-01 12:46 -11.26706 -50.21965 34001 ft 478 kts 150°
2026-05-01 12:47 -11.32550 -50.18785 33999 ft 477 kts 150°
2026-05-01 12:47 -11.38423 -50.15590 34001 ft 477 kts 150°
2026-05-01 12:48 -11.44316 -50.12382 34000 ft 477 kts 150°
2026-05-01 12:48 -11.50139 -50.09210 34000 ft 477 kts 150°
2026-05-01 12:49 -11.56031 -50.05999 34002 ft 478 kts 150°
2026-05-01 12:49 -11.61906 -50.02796 34000 ft 477 kts 150°
2026-05-01 12:50 -11.67769 -49.99598 34001 ft 477 kts 150°
2026-05-01 12:50 -11.73639 -49.96395 34002 ft 477 kts 150°
2026-05-01 12:51 -11.79474 -49.93209 34002 ft 477 kts 150°
2026-05-01 12:52 -11.88260 -49.88409 34001 ft 477 kts 150°
2026-05-01 12:52 -11.97069 -49.83593 34006 ft 477 kts 150°
2026-05-01 12:53 -12.05875 -49.78775 34019 ft 478 kts 150°
2026-05-01 12:54 -12.11752 -49.75557 34020 ft 478 kts 150°
2026-05-01 12:54 -12.20525 -49.70752 34023 ft 476 kts 150°
2026-05-01 12:55 -12.29283 -49.65950 34021 ft 476 kts 150°
2026-05-01 12:56 -12.35157 -49.62727 34020 ft 477 kts 150°
2026-05-01 12:56 -12.40992 -49.59525 34020 ft 477 kts 150°
2026-05-01 12:57 -12.46854 -49.56306 34021 ft 477 kts 150°
2026-05-01 12:57 -12.55671 -49.51461 34022 ft 477 kts 150°
2026-05-01 12:58 -12.61528 -49.48241 34022 ft 477 kts 150°
2026-05-01 12:59 -12.70283 -49.43424 34023 ft 477 kts 150°
2026-05-01 12:59 -12.79078 -49.38580 34024 ft 478 kts 150°
2026-05-01 13:00 -12.87864 -49.33738 34029 ft 478 kts 150°
2026-05-01 13:01 -12.96645 -49.28894 34028 ft 477 kts 150°
2026-05-01 13:02 -13.05428 -49.24046 34032 ft 477 kts 150°
2026-05-01 13:07 -13.69828 -48.88369 34105 ft 476 kts 150°
2026-05-01 13:08 -13.75647 -48.85135 34110 ft 476 kts 150°
2026-05-01 13:08 -13.81477 -48.81892 34114 ft 476 kts 150°
2026-05-01 13:09 -13.87323 -48.78639 34112 ft 476 kts 150°
2026-05-01 13:09 -13.93132 -48.75405 34108 ft 476 kts 150°
2026-05-01 13:10 -13.98971 -48.72152 34108 ft 476 kts 150°
2026-05-01 13:10 -14.04820 -48.68891 34110 ft 476 kts 150°
2026-05-01 13:11 -14.10627 -48.65653 34112 ft 475 kts 150°
2026-05-01 13:11 -14.16483 -48.62384 34110 ft 475 kts 150°
2026-05-01 13:12 -14.22349 -48.59108 34117 ft 475 kts 150°
2026-05-01 13:12 -14.28183 -48.55848 34119 ft 475 kts 150°
2026-05-01 13:13 -14.33988 -48.52603 34134 ft 475 kts 150°
2026-05-01 13:13 -14.39822 -48.49339 34147 ft 474 kts 150°
2026-05-01 13:14 -14.45625 -48.46091 34155 ft 474 kts 150°
2026-05-01 13:14 -14.51422 -48.42844 34164 ft 474 kts 150°
2026-05-01 13:15 -14.57234 -48.39586 34173 ft 474 kts 150°
2026-05-01 13:15 -14.63024 -48.36340 34177 ft 474 kts 150°
2026-05-01 13:16 -14.68918 -48.33033 34182 ft 474 kts 150°
2026-05-01 13:16 -14.74708 -48.29782 34187 ft 473 kts 150°
2026-05-01 13:17 -14.86301 -48.23266 34186 ft 472 kts 150°
2026-05-01 13:18 -14.95128 -48.18677 34195 ft 474 kts 156°
2026-05-01 13:18 -15.01219 -48.16111 34191 ft 474 kts 156°
2026-05-01 13:19 -15.07363 -48.13523 34190 ft 473 kts 156°
2026-05-01 13:20 -15.16510 -48.09660 34192 ft 473 kts 156°
2026-05-01 13:20 -15.22645 -48.07066 34194 ft 473 kts 156°
2026-05-01 13:21 -15.31790 -48.03197 34200 ft 473 kts 156°
2026-05-01 13:21 -15.37928 -48.00599 34201 ft 474 kts 156°
2026-05-01 13:22 -15.44050 -47.98005 34204 ft 474 kts 157°
2026-05-01 13:22 -15.50139 -47.95424 34213 ft 474 kts 157°
2026-05-01 13:23 -15.56286 -47.92817 34215 ft 474 kts 157°
2026-05-01 13:23 -15.62381 -47.90231 34222 ft 473 kts 157°
2026-05-01 13:24 -15.68497 -47.87633 34241 ft 473 kts 157°
2026-05-01 13:25 -15.77644 -47.83745 34249 ft 474 kts 157°
2026-05-01 13:25 -15.83747 -47.81148 34250 ft 474 kts 157°
2026-05-01 13:26 -15.89880 -47.78536 34246 ft 473 kts 157°
2026-05-01 13:26 -15.95969 -47.75940 34238 ft 473 kts 157°
2026-05-01 13:27 -16.02083 -47.73331 34231 ft 473 kts 157°
2026-05-01 13:27 -16.11276 -47.69406 34226 ft 474 kts 157°
2026-05-01 13:28 -16.20431 -47.65493 34221 ft 473 kts 157°
2026-05-01 13:29 -16.32602 -47.60284 34210 ft 473 kts 157°
2026-05-01 13:31 -16.51081 -47.52799 34208 ft 474 kts 161°
2026-05-01 13:32 -16.66697 -47.47212 34210 ft 473 kts 160°
2026-05-01 13:33 -16.82311 -47.41571 34219 ft 474 kts 160°
2026-05-01 13:34 -16.94776 -47.37055 34216 ft 474 kts 160°
2026-05-01 13:35 -17.04139 -47.33657 34219 ft 474 kts 160°
2026-05-01 13:36 -17.13546 -47.30238 34219 ft 474 kts 160°
2026-05-01 13:36 -17.22899 -47.26836 34219 ft 474 kts 160°
2026-05-01 13:37 -17.29115 -47.24573 34217 ft 474 kts 160°
2026-05-01 13:37 -17.35393 -47.22285 34222 ft 475 kts 160°
2026-05-01 13:38 -17.44803 -47.18854 34212 ft 478 kts 160°
2026-05-01 13:39 -17.51053 -47.16572 34215 ft 475 kts 161°
2026-05-01 13:39 -17.57324 -47.14281 34212 ft 474 kts 161°
2026-05-01 13:40 -17.63559 -47.12001 34208 ft 473 kts 161°
2026-05-01 13:40 -17.69756 -47.09734 34204 ft 473 kts 161°
2026-05-01 13:41 -17.76005 -47.07446 34205 ft 474 kts 161°
2026-05-01 13:41 -17.82244 -47.05160 34207 ft 474 kts 161°
2026-05-01 13:42 -17.88516 -47.02860 34208 ft 476 kts 161°
2026-05-01 13:42 -17.94768 -47.00565 34207 ft 476 kts 161°
2026-05-01 13:43 -18.01045 -46.98260 34210 ft 475 kts 161°
2026-05-01 13:43 -18.07310 -46.95958 34212 ft 475 kts 161°
2026-05-01 13:44 -18.13607 -46.93642 34213 ft 474 kts 161°
2026-05-01 13:44 -18.19854 -46.91342 34215 ft 475 kts 161°
2026-05-01 13:45 -18.26124 -46.89033 34214 ft 476 kts 161°
2026-05-01 13:45 -18.32404 -46.86717 34222 ft 477 kts 161°
2026-05-01 13:46 -18.38699 -46.84395 34224 ft 477 kts 161°
2026-05-01 13:46 -18.44968 -46.82080 34229 ft 477 kts 161°
2026-05-01 13:47 -18.51217 -46.79771 34233 ft 475 kts 161°
2026-05-01 13:47 -18.57441 -46.77470 34235 ft 475 kts 161°
2026-05-01 13:48 -18.63702 -46.75153 34235 ft 475 kts 161°
2026-05-01 13:48 -18.69948 -46.72839 34236 ft 475 kts 161°
2026-05-01 13:49 -18.76220 -46.70515 34233 ft 476 kts 161°
2026-05-01 13:49 -18.82508 -46.68182 34235 ft 476 kts 161°
2026-05-01 13:50 -18.88759 -46.65861 34239 ft 476 kts 161°
2026-05-01 13:50 -18.95055 -46.63512 34235 ft 476 kts 160°
2026-05-01 13:51 -19.01230 -46.61026 34237 ft 476 kts 160°
2026-05-01 13:51 -19.07454 -46.58508 34239 ft 477 kts 160°
2026-05-01 13:52 -19.13679 -46.55994 34241 ft 477 kts 160°
2026-05-01 13:52 -19.19912 -46.53478 34246 ft 477 kts 160°
2026-05-01 13:53 -19.26170 -46.50952 34247 ft 477 kts 160°
2026-05-01 13:53 -19.35329 -46.47252 34255 ft 477 kts 160°
2026-05-01 13:54 -19.41594 -46.44719 34257 ft 477 kts 160°
2026-05-01 13:54 -19.47871 -46.42180 34256 ft 477 kts 160°
2026-05-01 13:55 -19.54076 -46.39667 34257 ft 477 kts 160°
2026-05-01 13:55 -19.60296 -46.37146 34256 ft 477 kts 160°
2026-05-01 13:56 -19.66529 -46.34619 34257 ft 478 kts 160°
2026-05-01 13:56 -19.72770 -46.32085 34256 ft 478 kts 160°
2026-05-01 13:57 -19.78994 -46.29557 34253 ft 478 kts 160°
2026-05-01 13:57 -19.85196 -46.27036 34253 ft 478 kts 160°
2026-05-01 13:58 -19.91518 -46.24464 34251 ft 479 kts 160°
2026-05-01 13:58 -19.97757 -46.21924 34246 ft 479 kts 160°
2026-05-01 13:59 -20.04065 -46.19353 34247 ft 478 kts 160°
2026-05-01 13:59 -20.10284 -46.16817 34246 ft 478 kts 160°
2026-05-01 14:00 -20.16599 -46.14239 34245 ft 479 kts 160°
2026-05-01 14:00 -20.22881 -46.11672 34242 ft 479 kts 160°
2026-05-01 14:01 -20.29166 -46.09102 34239 ft 479 kts 160°
2026-05-01 14:01 -20.35385 -46.06557 34241 ft 480 kts 161°
2026-05-01 14:02 -20.41659 -46.03987 34242 ft 480 kts 161°
2026-05-01 14:02 -20.47951 -46.01407 34244 ft 479 kts 161°
2026-05-01 14:03 -20.54231 -45.98830 34243 ft 478 kts 161°
2026-05-01 14:03 -20.60469 -45.96268 34241 ft 479 kts 161°
2026-05-01 14:04 -20.66743 -45.93689 34241 ft 479 kts 161°
2026-05-01 14:04 -20.71990 -45.91530 34239 ft 480 kts 161°
2026-05-01 14:05 -20.79281 -45.88523 34239 ft 481 kts 161°
2026-05-01 14:05 -20.85736 -45.86470 34237 ft 476 kts 175°
2026-05-01 14:06 -20.92390 -45.86592 34241 ft 469 kts 193°
2026-05-01 14:06 -20.98794 -45.88048 34248 ft 468 kts 195°
2026-05-01 14:07 -21.05175 -45.89589 34250 ft 468 kts 195°
2026-05-01 14:08 -21.14765 -45.91946 34251 ft 468 kts 195°
2026-05-01 14:08 -21.21108 -45.93519 34250 ft 468 kts 196°
2026-05-01 14:09 -21.27491 -45.95106 34250 ft 468 kts 196°
2026-05-01 14:09 -21.33888 -45.96701 34250 ft 468 kts 196°
2026-05-01 14:10 -21.40258 -45.98293 34251 ft 467 kts 196°
2026-05-01 14:10 -21.46602 -45.99879 34255 ft 467 kts 196°
2026-05-01 14:11 -21.52955 -46.01469 34218 ft 464 kts 196°
2026-05-01 14:11 -21.59286 -46.03056 33631 ft 467 kts 196°
2026-05-01 14:11 -21.67746 -46.05172 33105 ft 457 kts 196°
2026-05-01 14:12 -21.75878 -46.07212 32326 ft 453 kts 196°
2026-05-01 14:12 -21.78938 -46.07982 31735 ft 452 kts 196°
2026-05-01 14:12 -21.82045 -46.08766 30556 ft 463 kts 196°
2026-05-01 14:12 -21.85214 -46.09566 29491 ft 470 kts 196°
2026-05-01 14:13 -21.88405 -46.10369 28807 ft 468 kts 196°
2026-05-01 14:13 -21.90509 -46.10899 28494 ft 464 kts 196°
2026-05-01 14:13 -21.94682 -46.11949 27900 ft 455 kts 195°
2026-05-01 14:13 -21.97743 -46.12719 27374 ft 451 kts 195°
2026-05-01 14:14 -22.00796 -46.13489 26816 ft 447 kts 195°
2026-05-01 14:14 -22.03826 -46.14254 26270 ft 444 kts 195°
2026-05-01 14:14 -22.06816 -46.15008 25728 ft 440 kts 195°
2026-05-01 14:14 -22.09772 -46.15754 25175 ft 437 kts 195°
2026-05-01 14:15 -22.12741 -46.16504 24620 ft 434 kts 195°
2026-05-01 14:15 -22.15505 -46.17203 24101 ft 431 kts 195°
2026-05-01 14:15 -22.18434 -46.17943 23501 ft 427 kts 195°
2026-05-01 14:15 -22.21341 -46.18678 22848 ft 423 kts 195°
2026-05-01 14:16 -22.24188 -46.19398 22207 ft 419 kts 195°
2026-05-01 14:16 -22.27027 -46.20116 21579 ft 416 kts 195°
2026-05-01 14:16 -22.29819 -46.20824 20958 ft 412 kts 195°
2026-05-01 14:16 -22.32592 -46.21523 20318 ft 410 kts 194°
2026-05-01 14:17 -22.35413 -46.22010 19691 ft 408 kts 189°
2026-05-01 14:17 -22.38221 -46.22410 19097 ft 404 kts 189°
2026-05-01 14:17 -22.40999 -46.22813 18501 ft 401 kts 190°
2026-05-01 14:17 -22.43749 -46.23220 17914 ft 398 kts 190°
2026-05-01 14:18 -22.46482 -46.23629 17337 ft 394 kts 190°
2026-05-01 14:18 -22.49184 -46.24039 16777 ft 390 kts 189°
2026-05-01 14:18 -22.51873 -46.24450 16214 ft 386 kts 189°
2026-05-01 14:18 -22.53631 -46.24719 15840 ft 383 kts 189°
2026-05-01 14:19 -22.57157 -46.25262 15070 ft 379 kts 189°
2026-05-01 14:19 -22.59755 -46.25663 14497 ft 375 kts 189°
2026-05-01 14:19 -22.62306 -46.26058 13915 ft 372 kts 189°
2026-05-01 14:19 -22.64867 -46.26455 13343 ft 368 kts 189°
2026-05-01 14:20 -22.67393 -46.26848 12768 ft 365 kts 189°
2026-05-01 14:20 -22.72422 -46.27629 11576 ft 361 kts 188°
2026-05-01 14:20 -22.74884 -46.28013 10980 ft 360 kts 188°
2026-05-01 14:21 -22.77362 -46.28539 10390 ft 357 kts 197°
2026-05-01 14:21 -22.79634 -46.29525 9908 ft 350 kts 208°
2026-05-01 14:21 -22.81708 -46.30832 9763 ft 333 kts 211°
2026-05-01 14:22 -22.85461 -46.33286 9734 ft 297 kts 212°
2026-05-01 14:22 -22.87182 -46.34421 9662 ft 283 kts 212°
2026-05-01 14:22 -22.88885 -46.35519 9278 ft 283 kts 210°
2026-05-01 14:22 -22.90599 -46.36548 8877 ft 283 kts 210°
2026-05-01 14:23 -22.92333 -46.37590 8499 ft 283 kts 210°
2026-05-01 14:23 -22.94044 -46.38627 8133 ft 281 kts 210°
2026-05-01 14:23 -22.95750 -46.39664 7759 ft 281 kts 210°
2026-05-01 14:23 -22.97445 -46.40696 7389 ft 280 kts 210°
2026-05-01 14:24 -22.99148 -46.41733 7026 ft 279 kts 210°
2026-05-01 14:24 -23.00840 -46.42764 6674 ft 277 kts 210°
2026-05-01 14:24 -23.02519 -46.43788 6351 ft 275 kts 210°
2026-05-01 14:24 -23.04194 -46.44809 6259 ft 274 kts 210°
2026-05-01 14:25 -23.05855 -46.45822 6255 ft 276 kts 210°
2026-05-01 14:25 -23.07549 -46.46855 6052 ft 278 kts 210°
2026-05-01 14:25 -23.09224 -46.47877 5976 ft 270 kts 210°
2026-05-01 14:25 -23.10887 -46.48892 5980 ft 276 kts 210°
2026-05-01 14:26 -23.12561 -46.49914 5980 ft 275 kts 210°
2026-05-01 14:26 -23.15927 -46.51971 5984 ft 275 kts 210°
2026-05-01 14:26 -23.17588 -46.52985 5988 ft 276 kts 210°
2026-05-01 14:27 -23.19265 -46.54010 5990 ft 275 kts 210°
2026-05-01 14:27 -23.20958 -46.55046 5990 ft 276 kts 210°
2026-05-01 14:27 -23.22590 -46.56156 5992 ft 275 kts 215°
2026-05-01 14:28 -23.25795 -46.58482 5994 ft 278 kts 214°
2026-05-01 14:28 -23.27376 -46.59609 5991 ft 276 kts 214°
2026-05-01 14:28 -23.28998 -46.60762 5987 ft 274 kts 214°
2026-05-01 14:28 -23.30594 -46.61895 5999 ft 275 kts 214°
2026-05-01 14:29 -23.32224 -46.63053 5991 ft 274 kts 214°
2026-05-01 14:29 -23.33793 -46.64168 5993 ft 274 kts 214°
2026-05-01 14:30 -23.38623 -46.67602 5991 ft 275 kts 214°
2026-05-01 14:30 -23.40326 -46.68556 5977 ft 275 kts 196°
2026-05-01 14:30 -23.42222 -46.68647 5973 ft 277 kts 169°
2026-05-01 14:31 -23.45289 -46.66313 5492 ft 268 kts 124°
2026-05-01 14:31 -23.46009 -46.65216 5347 ft 263 kts 122°
2026-05-01 14:31 -23.47055 -46.63152 5084 ft 251 kts 102°
2026-05-01 14:31 -23.47103 -46.61207 4804 ft 238 kts 79°
2026-05-01 14:32 -23.46779 -46.59534 4502 ft 217 kts 75°
2026-05-01 14:32 -23.46436 -46.58078 4250 ft 198 kts 72°
2026-05-01 14:32 -23.46056 -46.56697 4012 ft 183 kts 72°
2026-05-01 14:32 -23.45704 -46.55408 3764 ft 172 kts 72°
2026-05-01 14:33 -23.45377 -46.54205 3530 ft 161 kts 73°
2026-05-01 14:33 -23.45073 -46.53078 3314 ft 152 kts 73°
2026-05-01 14:33 -23.44781 -46.52007 3108 ft 144 kts 72°
2026-05-01 14:33 -23.44503 -46.50977 2916 ft 140 kts 73°
2026-05-01 14:34 -23.44221 -46.49955 2730 ft 141 kts 73°
2026-05-01 14:34 -23.43952 -46.48940 2532 ft 138 kts 73°
2026-05-01 14:34 -23.43690 -46.47987 2473 ft 118 kts 73°
2026-05-01 14:34 -23.43522 -46.47358 2473 ft 46 kts 75°
2026-05-01 14:35 -23.43438 -46.47084 2470 ft 30 kts 65°
2026-05-01 14:35 -23.43334 -46.46891 2464 ft 28 kts 47°
2026-05-01 14:35 -23.43184 -46.46747 2459 ft 16 kts 36°
2026-05-01 14:35 -23.43175 -46.46741 2459 ft 3 kts 33°
2026-05-01 14:36 -23.43118 -46.46722 2457 ft 13 kts 353°
2026-05-01 14:36 -23.42994 -46.46751 2456 ft 21 kts 345°
2026-05-01 14:36 -23.42867 -46.46787 2452 ft 8 kts 345°
2026-05-01 14:36 -23.42844 -46.46835 2452 ft 9 kts 257°
2026-05-01 14:37 -23.42870 -46.46923 2453 ft 16 kts 252°
2026-05-01 14:37 -23.42908 -46.47067 2454 ft 23 kts 254°
2026-05-01 14:37 -23.42939 -46.47184 2453 ft 8 kts 252°
2026-05-01 14:37 -23.42967 -46.47279 2453 ft 17 kts 253°
2026-05-01 14:38 -23.42996 -46.47383 2454 ft 11 kts 254°
2026-05-01 14:38 -23.42946 -46.47463 2453 ft 18 kts 330°
2026-05-01 14:38 -23.42846 -46.47512 2451 ft 13 kts 343°
2026-05-01 14:38 -23.42777 -46.47475 2450 ft 9 kts 63°
2026-05-01 14:39 -23.42764 -46.47437 2450 ft 2 kts 73°
2026-05-01 14:39 -23.42762 -46.47430 2450 ft 0 kts 73°